• In Belarus
  • List of Countries
  • For 7 days
  • Water Temperature
  • Weather Map
  • Weather Widgets
  • user-avatar
    Login

    Hourly Weather Cilitl

    Today, 2 June, Tuesday

    Time Temperature Precipitation Wind Pressure Humidity
    00:00 +10°C° 0 mm 1 mps 606 mmHg 59%
    01:00 +10°C° 0 mm 1 mps 606 mmHg 57%
    02:00 +10°C° 0 mm 1 mps 605 mmHg 55%
    03:00 +10°C° 0 mm 1 mps 605 mmHg 53%
    04:00 +11°C° 0 mm 1 mps 606 mmHg 55%
    05:00 +11°C° 0 mm 1 mps 606 mmHg 57%
    06:00 +12°C° 0 mm 1 mps 606 mmHg 59%
    07:00 +14°C° 0 mm 1 mps 607 mmHg 54%
    08:00 +18°C° 0 mm 1 mps 608 mmHg 49%
    09:00 +19°C° 0 mm 2 mps 609 mmHg 44%
    10:00 +20°C° 0 mm 2 mps 609 mmHg 43%
    11:00 +21°C° 0 mm 2 mps 609 mmHg 42%
    12:00 +21°C° 0 mm 3 mps 609 mmHg 41%
    13:00 +21°C° 0.3 mm 2 mps 609 mmHg 43%
    14:00 +21°C° 0.3 mm 2 mps 609 mmHg 45%
    15:00 +21°C° 0.3 mm 2 mps 608 mmHg 47%
    16:00 +19°C° 0.2 mm 2 mps 608 mmHg 55%
    17:00 +17°C° 0.2 mm 2 mps 607 mmHg 62%
    18:00 +15°C° 0.2 mm 2 mps 606 mmHg 70%
    19:00 +13°C° 0.1 mm 3 mps 606 mmHg 71%
    20:00 +12°C° 0.1 mm 3 mps 605 mmHg 72%
    21:00 +11°C° 0.1 mm 3 mps 604 mmHg 73%
    22:00 +10°C° 0 mm 3 mps 604 mmHg 72%
    23:00 +10°C° 0 mm 3 mps 603 mmHg 72%

    Tomorrow, 3 June, Wednesday

    Time Temperature Precipitation Wind Pressure Humidity
    00:00 +10°C° 0 mm 2 mps 603 mmHg 71%
    01:00 +10°C° 0 mm 2 mps 603 mmHg 70%
    02:00 +10°C° 0 mm 2 mps 603 mmHg 69%
    03:00 +10°C° 0 mm 2 mps 603 mmHg 68%
    04:00 +12°C° 0 mm 2 mps 603 mmHg 68%
    05:00 +12°C° 0 mm 2 mps 603 mmHg 68%
    06:00 +13°C° 0 mm 2 mps 604 mmHg 68%
    07:00 +15°C° 0 mm 2 mps 605 mmHg 61%
    08:00 +17°C° 0 mm 2 mps 606 mmHg 55%
    09:00 +19°C° 0 mm 2 mps 607 mmHg 48%
    10:00 +19°C° 0 mm 2 mps 607 mmHg 49%
    11:00 +19°C° 0 mm 3 mps 607 mmHg 49%
    12:00 +20°C° 0 mm 3 mps 607 mmHg 49%
    13:00 +19°C° 0.5 mm 3 mps 607 mmHg 57%
    14:00 +18°C° 0.5 mm 3 mps 607 mmHg 64%
    15:00 +17°C° 0.5 mm 3 mps 606 mmHg 71%
    16:00 +16°C° 0.6 mm 2 mps 606 mmHg 75%
    17:00 +15°C° 0.6 mm 2 mps 606 mmHg 79%
    18:00 +14°C° 0.6 mm 1 mps 607 mmHg 82%
    19:00 +12°C° 0.2 mm 1 mps 606 mmHg 83%
    20:00 +11°C° 0.2 mm 1 mps 606 mmHg 84%
    21:00 +10°C° 0.2 mm 1 mps 605 mmHg 84%
    22:00 +9°C° 0 mm 1 mps 605 mmHg 83%
    23:00 +9°C° 0 mm 1 mps 605 mmHg 82%

    Day after tomorrow, 4 June, Thursday

    Time Temperature Precipitation Wind Pressure Humidity
    00:00 +9°C° 0 mm 1 mps 605 mmHg 80%
    01:00 +9°C° 0 mm 1 mps 605 mmHg 82%
    02:00 +8°C° 0 mm 1 mps 605 mmHg 85%
    03:00 +8°C° 0 mm 1 mps 606 mmHg 87%
    04:00 +8°C° 0 mm 0 mps 606 mmHg 86%
    05:00 +9°C° 0 mm 0 mps 607 mmHg 86%
    06:00 +9°C° 0 mm 0 mps 607 mmHg 85%
    07:00 +10°C° 0 mm 0 mps 608 mmHg 80%
    08:00 +13°C° 0 mm 1 mps 608 mmHg 75%
    09:00 +14°C° 0 mm 2 mps 609 mmHg 70%
    10:00 +15°C° 0 mm 2 mps 609 mmHg 69%
    11:00 +15°C° 0 mm 2 mps 609 mmHg 68%
    12:00 +16°C° 0 mm 3 mps 610 mmHg 67%
    13:00 +16°C° 0.1 mm 3 mps 609 mmHg 68%
    14:00 +16°C° 0.1 mm 3 mps 609 mmHg 69%
    15:00 +16°C° 0.1 mm 3 mps 609 mmHg 70%
    16:00 +15°C° 0 mm 2 mps 609 mmHg 72%
    17:00 +15°C° 0 mm 2 mps 609 mmHg 74%
    18:00 +15°C° 0 mm 2 mps 609 mmHg 76%
    19:00 +13°C° 0 mm 2 mps 608 mmHg 81%
    20:00 +12°C° 0 mm 1 mps 608 mmHg 85%
    21:00 +10°C° 0 mm 1 mps 607 mmHg 90%
    22:00 +10°C° 0 mm 1 mps 607 mmHg 88%
    23:00 +10°C° 0 mm 1 mps 607 mmHg 86%

    5 June, Friday

    Time Temperature Precipitation Wind Pressure Humidity
    00:00 +10°C° 0 mm 1 mps 607 mmHg 84%
    01:00 +9°C° 0.1 mm 1 mps 608 mmHg 82%
    02:00 +9°C° 0.1 mm 1 mps 608 mmHg 81%
    03:00 +9°C° 0.1 mm 1 mps 608 mmHg 80%
    04:00 +9°C° 0.1 mm 1 mps 608 mmHg 81%
    05:00 +10°C° 0.1 mm 1 mps 609 mmHg 82%
    06:00 +11°C° 0.1 mm 1 mps 610 mmHg 82%
    07:00 +11°C° 0.1 mm 1 mps 610 mmHg 81%
    08:00 +12°C° 0.1 mm 2 mps 610 mmHg 81%
    09:00 +13°C° 0.1 mm 2 mps 611 mmHg 80%
    10:00 +13°C° 0.4 mm 2 mps 611 mmHg 80%
    11:00 +13°C° 0.4 mm 2 mps 611 mmHg 81%
    12:00 +13°C° 0.4 mm 2 mps 611 mmHg 81%
    13:00 +13°C° 0.5 mm 2 mps 611 mmHg 81%
    14:00 +13°C° 0.5 mm 2 mps 611 mmHg 81%
    15:00 +13°C° 0.5 mm 2 mps 611 mmHg 81%
    16:00 +13°C° 0.9 mm 2 mps 611 mmHg 83%
    17:00 +12°C° 0.9 mm 1 mps 611 mmHg 86%
    18:00 +12°C° 0.9 mm 1 mps 611 mmHg 88%
    19:00 +11°C° 0.6 mm 1 mps 611 mmHg 89%
    20:00 +10°C° 0.6 mm 1 mps 611 mmHg 90%
    21:00 +8°C° 0.6 mm 0 mps 611 mmHg 92%
    22:00 +8°C° 0 mm 0 mps 611 mmHg 90%
    23:00 +7°C° 0 mm 0 mps 611 mmHg 89%

    6 June, Saturday

    Time Temperature Precipitation Wind Pressure Humidity
    00:00 +7°C° 0 mm 0 mps 611 mmHg 88%
    01:00 +8°C° 0 mm 1 mps 611 mmHg 87%
    02:00 +8°C° 0 mm 1 mps 611 mmHg 87%
    03:00 +7°C° 0 mm 1 mps 611 mmHg 86%
    04:00 +8°C° 0 mm 1 mps 611 mmHg 84%
    05:00 +8°C° 0 mm 0 mps 612 mmHg 81%
    06:00 +9°C° 0 mm 0 mps 612 mmHg 78%
    07:00 +12°C° 0 mm 1 mps 613 mmHg 74%
    08:00 +13°C° 0 mm 1 mps 613 mmHg 69%
    09:00 +15°C° 0 mm 2 mps 614 mmHg 64%
    10:00 +16°C° 0 mm 2 mps 614 mmHg 63%
    11:00 +16°C° 0 mm 2 mps 614 mmHg 62%
    12:00 +17°C° 0 mm 2 mps 615 mmHg 61%
    13:00 +17°C° 0.5 mm 2 mps 614 mmHg 65%
    14:00 +16°C° 0.5 mm 2 mps 614 mmHg 69%
    15:00 +16°C° 0.5 mm 2 mps 613 mmHg 73%
    16:00 +15°C° 1 mm 2 mps 613 mmHg 75%
    17:00 +15°C° 1 mm 1 mps 613 mmHg 78%
    18:00 +14°C° 1 mm 1 mps 613 mmHg 80%
    19:00 +13°C° 0.4 mm 1 mps 612 mmHg 83%
    20:00 +11°C° 0.4 mm 1 mps 612 mmHg 85%
    21:00 +10°C° 0.4 mm 1 mps 612 mmHg 88%
    22:00 +10°C° 0 mm 1 mps 611 mmHg 86%
    23:00 +9°C° 0 mm 1 mps 611 mmHg 84%

    7 June, Sunday

    Time Temperature Precipitation Wind Pressure Humidity
    00:00 +9°C° 0 mm 1 mps 611 mmHg 82%
    01:00 +9°C° 0 mm 1 mps 611 mmHg 81%
    02:00 +9°C° 0 mm 1 mps 611 mmHg 81%
    03:00 +9°C° 0 mm 1 mps 611 mmHg 80%
    04:00 +10°C° 0 mm 1 mps 611 mmHg 79%
    05:00 +10°C° 0 mm 1 mps 612 mmHg 77%
    06:00 +11°C° 0 mm 1 mps 612 mmHg 75%
    07:00 +13°C° 0 mm 1 mps 613 mmHg 70%
    08:00 +15°C° 0 mm 1 mps 613 mmHg 64%
    09:00 +16°C° 0 mm 1 mps 614 mmHg 59%
    10:00 +17°C° 0 mm 2 mps 614 mmHg 56%
    11:00 +18°C° 0 mm 2 mps 615 mmHg 53%
    12:00 +19°C° 0 mm 2 mps 615 mmHg 51%
    13:00 +19°C° 0.2 mm 2 mps 615 mmHg 52%
    14:00 +18°C° 0.2 mm 3 mps 614 mmHg 54%
    15:00 +18°C° 0.2 mm 3 mps 614 mmHg 55%
    16:00 +17°C° 0.1 mm 2 mps 614 mmHg 59%
    17:00 +17°C° 0.1 mm 2 mps 613 mmHg 63%
    18:00 +16°C° 0.1 mm 1 mps 613 mmHg 67%
    19:00 +14°C° 0 mm 1 mps 612 mmHg 73%
    20:00 +12°C° 0 mm 1 mps 612 mmHg 78%
    21:00 +9°C° 0 mm 0 mps 611 mmHg 84%
    22:00 +10°C° 0 mm 1 mps 611 mmHg 84%
    23:00 +10°C° 0 mm 1 mps 610 mmHg 84%
    Show more